Tracking 27420 objects as of 10-Jun-2023
HD Live streaming from Space Station
objects crossing your sky now

COSMOS 2499 DEB

Track COSMOS 2499 DEB now!
10-day predictions


NORAD ID: 49938
Int'l Code: 2014-028V
Perigee: 1,070.1 km
Apogee: 1,492.1 km
Inclination: 82.6 °
Period: 111.0 minutes
Semi major axis: 7652 km
RCS: Unknown
Launch date: May 23, 2014
Source: Commonwealth of Independent States (former USSR) (CIS)
Launch site: PLESETSK MISSILE AND SPACE COMPLEX (PKMTR)

Note: This is SATELLITE DEBRIS
Your satellite tracking list
Your tracking list is empty




NASA's NSSDC Master Catalog

Two Line Element Set (TLE):
1 49938U 14028V   23160.55881340  .00000060  00000-0  14004-3 0  9992
2 49938  82.5692 274.2445 0275771  26.2592 335.2203 12.96973119 75671
Source of the keplerian elements: AFSPC